sat.trackr.live / text

‹ back to catalog

STARLINK-32009

NORAD 60104 · 2024-117P

PAYLOAD ACTIVE UNKNOWN

§ Identity

Operator
Country
US
Launch date
2024-06-23
Launch site
AFETR
Launch vehicle
Mass (kg)
RCS (m²)

Purposes: comms

External: N2YO · Heavens-Above · Gunter

§ Orbital elements

Epoch: 2026-09-21T02:53:01.176864Z

Period
93.85 min
Inclination
53.1601°
Eccentricity
0.0001357
Mean motion
15.34392532 rev/d
Perigee alt
461.8 km
Apogee alt
463.7 km
Semi-major
6,840.9 km
B*
7.1125e-6
RAAN
206.8011°
Arg perigee
73.4545°
Mean anomaly
286.6607°
Rev number
12,684

§ Raw data

STARLINK-320091 60104U 24117P   26264.12015251 -.00000136  00000+0  71125-5 0  99942 60104  53.1601 206.8011 0001357  73.4545 286.6607 15.34392532126844

JSON: /api/v1/satellites/60104 · /tle

For live sub-satellite position, see the globe view (requires WebGL).

§ Visibility from observer

Set your observer location to see the next 7 days of passes ≥ 10°. The values pass through the URL so the page stays shareable.

No JS? Fill the form by hand. The geolocation button needs JavaScript.